Aeroporto :
LOGIN :

Iscrizione | Disclaimer

   EN    FR    IT 

 










Sommario :    VFR   VFR Marginale   IFR   IFR Intensivo   IFR Molto Intensivo
Visibilità : 
Base nubi : 
>= 8 km
>= 3000ft
5 / 8 km
1000 / 3000 ft
1500m / 5 km
500 / 1000 ft
800 / 1500m
200 / 500 ft
< 800m
< 200 ft
Simboli :   Temporali  Nebbia  Neve Forte  Precipitazioni Forti  Vento > 20 kt
SIGMETs :   Varie  Temporali  Ghiacco  Turbolenza  Onda orograficha  Ceneri Vulcaniche







- Altitudine del aeroporto : 1516 ft
- Codice IATA : AGB


EDMA - Augsburg

ULTIMO METAR :
  • 201550Z 08006KT CAVOK 03/M01 Q1005

METARs OBSOLETI :
  • 201520Z 07005KT CAVOK 04/M00 Q1005
  • 201450Z 09004KT CAVOK 05/M00 Q1005
  • 201420Z 10006KT 070V130 CAVOK 05/M00 Q1005
  • 201350Z 11006KT CAVOK 05/M00 Q1004
  • 201320Z 10007KT 060V130 9999 FEW026 06/00 Q1004

TAF TAF EDMA
Valido dal 20 a 15 ore il 21 a 00 ore UTC


201400Z 2015/2024 10007KT CAVOK
BECMG 2017/2020 3000 BCFG
BECMG 2020/2022 2000 OVC003
Nessun NOTAM noto per questo aeroporto.



MetMap, La meteo Aeronautica in un colpo d'occhio ! - Copyright ORBIFLY Dicembre 2007 - Disclaimer

ORBIFLY MET'MAP TEAM :

Programmazione e sviluppo : Alexandra Zaïnal
Concezione e sviluppo : Baudouin d'Aumeries
Co-Programmazione e sviluppo : Marc-Olivier Méhu
Supporto tecnico e logistico : Manuel Goepfert
Aiuto per la traduzione : Arnaldo La Scala

Contatto : metmap@orbifly.com




FONTI E CREDITI :

   NOAA